OBJECT A, 64087

Orbit data source: Space-Track

You're viewing an Uncataloged Satellite

Recently launched and/or uncataloged satellites may have evolving metadata. Metadata may include but not limited to: Owner, Maufacturer, Bus, Motor, and Mission.

OBJECT A, 64087 is a Chinese satellite in SSO that was launched on Wed, 21 May 2025 UTC via a LIJIAN-1 launch vehicle from the Jiuquan Satellite Launch Center, China (JSC). Unknown objects in Earth's orbit typically refer to objects detected orbiting the Earth but have not yet been identified or cataloged. These objects could be anything from previously untracked satellites, spent rocket stages, debris from satellite collisions, or even natural meteoroids temporarily captured by Earth's gravity.

Loading next visibility...
Identifier
64087, 2025-108A
Orbit
SSO
Country
Flag of CNCN / PRC
Related business
None
Manufacturer
Unknown
Mission
Operational Commercial Radar Imaging
Bus & Motor
Unknown
Mass
Unknown
Launch date (UTC)
2025-05-21 (1 year ago)
Launch vehicle
LIJIAN-1
Launch site
Jiuquan Satellite Launch Center, China (JSC)
Object type
Unknown
Shape & HBR
Box + 3 Pan, 1.1 m
Radar Cross Section
3.533 m², Large (>1 m²)

Expand to show TLE details & history
Last TLE update: 8 hours ago

TLE from 8 hours ago
0 OBJECT A
1 64087U 25108A   26171.51726826  .00003550  00000-0  18708-3 0  9995
2 64087  97.4762 246.1923 0001173 300.2900  59.8217 15.16231404 59828
Epoch: 2026-06-20T12:24Z
TLE epoch observation values (Epoch: 2026-06-20T12:24:51.977Z)
Latitude
-0.00001°
Longitude
151.24497°
Altitude
519.919 km
Speed
7.604 km/s
True Right ascension
16h 24m 46s
True Declination
0° 00' 00"
Sunlit
Object was in full shadow at epoch
Visualization orbit readout
Latitude
Unknown
Longitude
Unknown
Altitude
Unknown
Speed
Unknown
Apparent Right ascension
Unknown
Apparent Declination
Unknown
Sunlit
N/A
Visualization observer readout
Local Sidereal Time
07:18:50
Azimuth
Unknown
Elevation
Unknown
Doppler factor
Unknown
Orbital elements
Apogee altitude
515.025 km
Perigee altitude
513.408 km
Semi-major axis
6,892.354 km
Eccentricity
0.00012
Inclination
97.4762°
RAAN
246.1923°
Arg. of periapsis
300.29°
True anomaly
59.83332°
Mean anomaly
59.8217°
Eccentric anomaly
59.82751°
Mean motion
3.79308 °/min
Orbital period
94.91 mins
BSTAR
0.00018708
Loading maneuver chart data...
Computing Atmospheric mass density...
Loading historical data...
Loading historical data...
Loading historical data...
Loading historical data...
Loading historical data...
Loading historical data...
Loading historical data...
Other satellites on launch #108 in the year 2025 (2025-05-21 UTC)

Documentation

Showing up to 5 results
|